User: anonymous   Login
Location: Newark
(25.4800°N, 85.7200°E)
Time: 09:45:50
(UTC+00:00)
Language:

Courier 1B Rocket - Orbit

View from above orbital plane
View from above orbital plane
View from above satellite
View from above satellite

Ground track
Ground track

The orbit data is extracted from the following two-line orbital elements,

1    59U 60013B   19232.69231475 +.00000121 +00000-0 +39919-4 0  9997
2    59 028.2507 328.2788 0189251 273.4566 084.4351 13.52970043905707
Epoch (UTC): 20 August 2019 16:36:55
Eccentricity: 0.0189251
inclination: 28.2507°
perigee height: 920 km
apogee height: 1202 km
right ascension of ascending node: 328.2788°
argument of perigee: 273.4566°
revolutions per day: 13.52970043
mean anomaly at epoch: 84.4351°
orbit number at epoch: 90570

The dashed part of the orbit path shows where the satellite is in the earth's shadow,  

DLR